Location: Limerick
(52.6650°N, 8.6230°W)
Time: 19:19:48
(UTC+01:00)

ISS - Pass Details

Date: 25 May 2017
Orbit: 402 x 408 km, 51.6° (Epoch: 29 May)

Event Time Altitude Azimuth Distance (km) Brightness Sun altitude
Rises 01:37:13 0° 267° (W) 2,333 0.0 -16.4°
Reaches altitude 10° 01:39:18 10° 266° (W) 1,471 -1.1 -16.4°
Maximum altitude 01:42:36 76° 181° (S) 424 -4.0 -16.3°
Drops below altitude 10° 01:45:53 10° 96° (E) 1,467 -1.0 -16.3°
Sets 01:47:58 0° 94° (E) 2,325 0.0 -16.3°
